Regional Weather Roundup
Issued by NWS Northern Indiana

Home | Current Version | Previous Version | Graphics & Text | Print | Product List | Glossary On
Versions: 1 2 3 4 5 6 7 8 9 10 11 12 13 14 15 16 17 18 19 20 21 22 23 24 25 26 27 28 29 30 31 32 33 34 35 36 37 38 39 40 41 42 43 44 45 46 47 48 49 50
000
ASUS43 KIWX 261700
RWRIWX

KIWX WEATHER ROUNDUP
NATIONAL WEATHER SERVICE NORTHERN INDIANA
100 PM EDT THU MAR 26 2015

NOTE: "FAIR" INDICATES FEW OR NO CLOUDS BELOW 12,000 FEET WITH NO
SIGNIFICANT WEATHER AND/OR OBSTRUCTIONS TO VISIBILITY.

* THESE STATIONS ARE NOT UNDER NWS QUALITY CONTROL. THEY ALSO MAY NOT
  REPORT WEATHER SUCH AS PRECIPITATION OR FOG.

INZ001>027-261800-
NORTHERN INDIANA

CITY           SKY/WX    TMP DP  RH WIND       PRES   REMARKS
GARY*          PTSUNNY   41  23  48 N14       29.98F
KNOX*            N/A     41  12  30 NW12      29.95S
SOUTH BEND     CLOUDY    40  24  53 NW15G22   29.95F
ELKHART*       CLOUDY    39  21  48 W14G21    29.94
GOSHEN         CLOUDY    42  28  57 W13       29.92F
WARSAW*        CLOUDY    37  30  75 NW10      29.93S
ANGOLA*        CLOUDY    37  27  65 NW13      29.89S
FORT WAYNE     CLOUDY    40  33  76 NW10      29.91F

$$
INZ028>050-261800-
CENTRAL INDIANA

CITY           SKY/WX    TMP DP  RH WIND       PRES   REMARKS
LAFAYETTE      CLOUDY    39  32  76 NW13      29.97F
KOKOMO*          N/A     39  30  70 NW12      29.94S
MUNCIE*        CLOUDY    38  34  85 N12       29.91F
INDIANAPOLIS   CLOUDY    39  34  82 NW10      29.93F

$$
MIZ043>046-050>051-056>058-064>065-071>073-077>080-261800-
SOUTHWEST LOWER MICHIGAN

CITY           SKY/WX    TMP DP  RH WIND       PRES   REMARKS
BATTLE CREEK   CLOUDY    39  25  57 NW15G22   29.90F
BENTON HARBOR  CLOUDY    38  26  62 W14G20    29.95F
COLDWATER*     CLOUDY    39  25  56 NW12      29.89F
HILLSDALE*     CLOUDY    40  28  64 NW10G18   29.86F
HOLLAND        CLOUDY    39  28  64 W15G21    29.94S
GRAND RAPIDS   CLOUDY    39  25  57 NW16      29.90S
KALAMAZOO      CLOUDY    41  23  48 W15       29.91F
STURGIS*       CLOUDY    39  27  60 NW10G17   29.90S
THREE RIVERS*  CLOUDY    41  25  54 NW15G21   29.91F

$$
OHZ001>008-015>018-024>025-261800-
NORTHWEST OHIO

CITY           SKY/WX    TMP DP  RH WIND       PRES   REMARKS
DEFIANCE       CLOUDY    41  32  70 NW10      29.89F
FINDLAY        CLOUDY    38  35  89 NW9       29.87F
TOLEDO EXPRESS CLOUDY    39  35  86 NW5       29.87F
TOLEDO METCALF CLOUDY    37  33  85 W6        29.89S FOG
LIMA           CLOUDY    39  36  89 NW10      29.87F

$$
AND FOR LAKE MICHIGAN COASTAL AND OPEN LAKE BUOY OBSERVATIONS

STATION/POSITION TEMP    WIND        PRES    VSBY  WAVE
                 AIR SEA DIR/SP/G                  HT/PER
                 (F)     (DEG/KT/KT) (MB)    (MI)  (FT/S)
CALUMET HARBOR    40     280/  6/  9 1013.9F
MICHIGAN CITY     35     280/ 12/ 14   N/A
BURNS HARBOR      36     340/  9/ 11 1015.9S
SAINT JOSEPH      35     270/  5/  8 1015.2F

$$
&&



USA.gov is the U.S. government's official web portal to all federal, state and local government web resources and services.